#timestamp,LO_Frequency,Hit,StdDev 
1455919215.8,286046998.5,N
1455919235.7,286046998.3,N
1455919255.5,286047001.2,N
1455919275.3,286046997.7,N
1455919295.2,286046993.7,Y
1455919315.9,286046997.1,P
1455919335.7,286046997.0,P
1455919355.6,286046997.4,P
1455919375.4,286046994.2,Y
1455919395.2,286046993.7,P
1455919415.1,286046995.6,N
1455919416.0,286046995.6,N
1455919435.8,286046993.4,Y
1455919455.6,286047002.8,P
1455919475.5,286047001.3,N
1455919495.3,286047001.3,N
1455919515.1,286047002.8,N
1455919535.9,286047003.3,N
1455919555.7,286047009.1,Y
1455919575.5,286047003.8,P
1455919595.4,286047001.8,N
1455919615.2,286047003.7,P
1455919635.0,286047001.4,N
1455919635.9,286047001.4,N
1455919655.8,286047004.3,Y
1455919675.6,286047001.2,P
1455919695.4,286047000.0,N
1455919715.2,286047000.9,N
1455919735.1,286047000.9,N
1455919736.0,286047000.9,N
1455919755.8,286046996.5,Y
1455919775.7,286047000.7,P
1455919795.5,286046998.9,P
1455919815.3,286046997.2,P
1455919835.1,286046996.8,N
1455919855.9,286046995.5,N
1455919875.7,286046994.4,N
1455919895.5,286046993.8,N
1455919915.4,286046995.5,N
1455919935.2,286046995.5,N
1455919955.0,286046996.4,N
1455919955.9,286046996.4,N
1455919975.8,286046995.0,N
1455919995.6,286046997.5,N
1455920015.4,286046995.2,N
1455920035.3,286046999.4,N
1455920055.1,286046999.5,N
1455920056.0,286046999.5,N
1455920075.8,286046999.6,N
1455920095.7,286046997.1,N
1455920115.5,286046996.8,N
1455920135.3,286046996.8,N
1455920155.1,286046996.8,N
1455920175.9,286046997.0,N
1455920195.7,286046996.9,N
1455920215.5,286046998.5,N
1455920235.4,286046998.7,N
1455920255.2,286046997.1,N
1455920275.0,286046999.0,N
1455920275.9,286046999.0,N
1455920295.8,286046997.3,N
1455920315.6,286046997.5,N
1455920335.4,286046999.2,N
1455920355.3,286046999.2,N
1455920375.1,286046999.4,N
1455920376.0,286046999.4,N
1455920395.8,286046995.2,N
1455920415.7,286046995.7,N
1455920435.5,286046996.3,N
1455920455.3,286046996.7,N
1455920475.1,286046998.6,N
1455920495.9,286046999.3,N
1455920515.7,286046996.7,N
1455920535.5,286046993.9,Y
1455920555.4,286046995.1,P
1455920575.2,286046995.5,P
1455920595.0,286046997.0,N
1455920595.9,286046997.0,N
1455920615.8,286046996.1,Y
1455920635.6,286046997.2,P
1455920655.4,286046997.0,P
1455920675.3,286046999.2,N
1455920695.1,286046996.5,Y
1455920715.9,286047000.4,P
1455920735.7,286047002.8,N
1455920755.5,286047002.0,N
1455920775.3,286046999.8,N
1455920795.2,286046999.4,N
1455920815.0,286046998.9,N
1455920815.9,286046998.9,N
1455920835.7,286046996.7,N
1455920855.6,286046999.5,N
1455920875.4,286047001.0,N
1455920895.2,286046996.8,N
1455920915.1,286046997.7,N
1455920916.0,286046997.7,N
1455920935.8,286046993.4,Y
1455920955.6,286046999.5,P
1455920975.5,286046996.5,P
1455920995.3,286046999.2,N
1455921015.1,286046999.4,N
1455921035.9,286046998.2,N
1455921055.7,286046997.9,N
1455921075.5,286046995.5,Y
1455921095.4,286046999.5,P
1455921115.2,286046995.4,P
1455921135.0,286046996.5,N
1455921135.9,286046996.5,N
1455921155.8,286046999.5,N
1455921175.6,286046995.3,N
1455921195.4,286046995.0,N
1455921215.3,286046999.3,N
1455921235.1,286046996.5,N
1455921236.0,286046996.5,N
1455921255.8,286046996.7,N
1455921275.6,286046996.1,N
1455921295.5,286046992.4,Y
1455921315.3,286046995.4,P
1455921335.1,286046993.7,P
1455921355.9,286046993.5,P
1455921375.7,286046993.6,Y
1455921395.6,286047000.9,P
1455921415.4,286047000.1,N
1455921435.2,286046999.7,N
1455921455.0,286047001.1,N
1455921455.9,286047001.1,N
1455921475.8,286047001.3,N
1455921495.6,286047000.0,N
1455921515.4,286047001.4,N
1455921535.3,286047003.2,N
1455921555.1,286047003.0,N
1455921556.0,286047003.0,N
1455921575.8,286047001.4,N
1455921595.7,286047005.5,N
1455921615.5,286047000.2,N
1455921635.3,286046999.0,N
1455921655.2,286046998.7,N
1455921675.9,286047001.1,N
1455921695.7,286047004.1,N
1455921715.5,286047001.7,N
1455921735.4,286047001.9,N
1455921755.2,286047000.4,N
1455921775.0,286047000.2,N
1455921775.9,286047000.2,N
1455921795.8,286047000.3,N
1455921815.6,286047000.0,N
1455921835.4,286047001.8,N
1455921855.3,286047000.3,N
1455921875.1,286046998.4,N
1455921876.0,286046998.4,N
1455921895.8,286046998.7,N
1455921915.7,286047000.5,N
1455921935.5,286047002.6,N
1455921955.3,286047002.0,N
1455921975.2,286046996.6,N
1455921995.9,286046995.5,N
1455922015.7,286046997.5,N
1455922035.5,286046996.9,N
1455922055.4,286046998.1,N
1455922075.2,286046996.6,N
1455922095.0,286046997.2,N
1455922095.9,286046997.2,N
1455922115.8,286046995.0,N
1455922135.6,286046999.4,N
1455922155.4,286046999.9,N
1455922175.3,286047001.4,N
1455922195.1,286047001.0,N
1455922215.8,286047000.3,N
1455922235.7,286047000.8,N
1455922255.5,286046999.9,N
1455922275.3,286047002.7,N
1455922295.2,286047000.3,N
1455922315.9,286046998.8,N
1455922335.7,286046996.6,N
1455922355.6,286046995.3,N
1455922375.4,286046997.8,N
1455922395.2,286046997.0,N
1455922415.0,286046997.3,N
1455922416.0,286046997.3,N
1455922435.8,286046999.1,N
1455922455.6,286046999.2,N
1455922475.4,286046996.8,N
1455922495.3,286046998.7,N
1455922515.1,286046998.3,N
1455922535.8,286047001.2,N
1455922555.7,286047000.1,N
1455922575.5,286047002.2,N
1455922595.3,286047000.1,N
1455922615.2,286047001.6,N
1455922635.9,286047003.6,N
1455922655.7,286047003.3,N
1455922675.6,286047004.8,N
1455922695.4,286047004.3,N
1455922715.2,286047001.9,N
1455922735.1,286047003.8,N
1455922736.0,286047003.8,N
1455922755.8,286047006.0,N
1455922775.6,286047003.0,N
1455922795.4,286047004.2,N
